SPDRWX Weather Reports


time (UTC)temp
F
wind
direction
speed
knots
gust
knots
rain 1hr
in
rain 24hr
in
rain mn
in
humidity
%
barometer
mb
20260506091930 42 344 2.6 5.2 0.00 0.00 0.02 75 1013.8
20260506091428 42 341 4.3 6.1 0.00 0.00 0.02 75 1013.8
20260506090927 42 344 2.6 3.5 0.00 0.00 0.02 75 1013.8
20260506085926 42 342 5.2 7.0 0.00 0.00 0.02 76 1013.7
20260506085422 42 341 3.5 5.2 0.00 0.00 0.02 76 1013.7
20260506084920 42 329 1.7 5.2 0.00 0.00 0.02 76 1013.8
20260506082415 43 24 0.0 0.0 0.00 0.00 0.02 77 1013.7
20260506080409 43 250 0.0 0.0 0.00 0.00 0.02 77 1013.6
20260506073402 43 343 0.9 3.5 0.00 0.00 0.02 76 1013.5
20260506072400 43 313 1.7 1.7 0.00 0.00 0.02 76 1013.5
20260506071859 43 210 0.0 1.7 0.00 0.00 0.02 76 1013.5
20260506071359 43 164 0.0 1.7 0.00 0.00 0.02 76 1013.5
20260506070856 43 336 0.9 2.6 0.00 0.00 0.02 76 1013.4
20260506070354 44 223 1.7 1.7 0.00 0.00 0.02 76 1013.5
20260506062344 44 199 1.7 3.5 0.00 0.00 0.02 75 1013.1
20260506061844 44 243 0.9 2.6 0.00 0.00 0.02 75 1013.0
20260506061343 45 205 1.7 2.6 0.00 0.00 0.02 75 1013.0
20260506060840 45 221 1.7 2.6 0.00 0.00 0.02 75 1012.9
20260506044824 46 297 0.0 1.7 0.00 0.00 0.02 73 1012.5
20260506044320 46 201 1.7 1.7 0.00 0.00 0.02 73 1012.5
20260506041812 46 250 0.9 0.9 0.00 0.00 0.02 74 1012.4
20260506041312 46 288 0.0 1.7 0.00 0.00 0.02 74 1012.3
20260506040814 45 0 0.0 0.0 0.00 0.00 0.02 74 1012.4
20260506040309 45 205 0.0 2.6 0.00 0.00 0.02 74 1012.3
20260506034817 45 342 1.7 2.6 0.00 0.00 0.02 73 1012.2
20260506034304 45 246 0.9 3.5 0.00 0.00 0.02 72 1012.1
20260506033301 46 282 3.5 4.3 0.00 0.00 0.02 71 1012.1
20260506032259 46 319 1.7 9.6 0.00 0.00 0.02 70 1012.0
20260506031256 47 285 2.6 4.3 0.00 0.00 0.02 67 1011.9
20260506025753 48 227 1.7 1.7 0.00 0.00 0.02 66 1011.6
20260506025251 49 205 0.0 2.6 0.00 0.00 0.02 66 1011.7
20260506024249 49 64 0.0 2.6 0.00 0.00 0.02 65 1011.5
20260506023747 49 71 0.0 1.7 0.00 0.00 0.02 65 1011.7
20260506023245 49 86 0.0 0.9 0.00 0.00 0.02 65 1011.6
20260506022243 50 210 0.0 0.9 0.00 0.00 0.02 64 1011.5
20260506020746 50 93 0.0 5.2 0.00 0.00 0.02 64 1011.5
20260506020238 51 129 0.9 6.1 0.00 0.00 0.02 63 1011.3
20260506013331 51 61 1.7 2.6 0.00 0.00 0.02 64 1011.0
20260506012326 51 140 0.0 0.0 0.00 0.00 0.02 63 1011.1
20260506011326 51 184 1.7 2.6 0.00 0.00 0.02 63 1011.0
20260506010329 51 24 0.0 0.0 0.00 0.00 0.02 63 1010.9
20260506005319 51 71 0.0 0.9 0.00 0.00 0.02 63 1010.9
20260506004316 51 55 0.9 2.6 0.00 0.00 0.02 62 1011.0
20260506003815 51 143 0.0 3.5 0.00 0.00 0.02 62 1010.9
20260506002313 52 169 0.0 1.7 0.00 0.00 0.02 60 1010.8
20260506000807 54 153 3.5 3.5 0.00 0.00 0.02 59 1010.7
20260505235807 54 139 1.7 1.7 0.00 0.00 0.02 60 1010.6
20260505233304 53 49 5.2 7.8 0.00 0.00 0.02 61 1010.6
20260505232255 53 63 0.9 5.2 0.00 0.00 0.02 61 1010.5
20260505231754 53 75 0.9 3.5 0.00 0.00 0.02 61 1010.5
20260505230319 53 66 8.7 9.6 0.00 0.00 0.02 61 1010.4
20260505230211 53 79 1.7 9.6 0.00 0.00 0.02 61 1010.4
20260505225705 53 33 3.5 6.1 0.00 0.00 0.02 61 1010.4
20260505225205 53 71 1.7 7.8 0.00 0.00 0.02 61 1010.4
20260505224203 53 55 1.7 6.1 0.00 0.00 0.02 62 1010.3
20260505221159 51 247 0.0 3.5 0.00 0.00 0.02 63 1010.4
20260505220154 50 128 0.9 4.3 0.00 0.00 0.02 62 1010.4
20260505215653 50 308 0.9 2.6 0.00 0.00 0.02 62 1010.4
20260505215149 50 141 0.0 2.6 0.00 0.00 0.02 62 1010.4
20260505212647 50 159 3.5 3.5 0.00 0.00 0.02 62 1010.6
20260505211642 50 164 6.1 7.0 0.00 0.00 0.02 62 1010.5
20260505204133 49 139 0.9 4.3 0.00 0.00 0.02 64 1010.4
20260505202629 49 164 0.0 3.5 0.00 0.00 0.02 65 1010.3
20260505202130 49 205 0.9 5.2 0.00 0.00 0.02 65 1010.3
20260505201122 48 252 2.6 5.2 0.00 0.00 0.02 66 1010.3
20260505200121 48 236 3.5 4.3 0.00 0.00 0.02 66 1010.3
20260505195621 48 295 4.3 5.2 0.00 0.00 0.02 66 1010.3
20260505195119 48 240 4.3 5.2 0.00 0.00 0.02 67 1010.3
20260505193614 48 239 1.7 3.5 0.00 0.00 0.02 70 1010.3
20260505193113 47 250 1.7 2.6 0.00 0.00 0.02 71 1010.2
20260505192611 47 180 0.9 1.7 0.00 0.00 0.02 71 1010.2
20260505190608 46 159 0.9 2.6 0.00 0.00 0.02 72 1010.3
20260505190106 46 250 0.9 3.5 0.00 0.00 0.01 73 1010.3
20260505185608 46 250 3.5 4.3 0.00 0.00 0.01 73 1010.3
20260505175546 43 343 0.0 0.9 0.00 0.00 0.70 77 1009.8
20260505174543 43 345 0.0 0.9 0.00 0.00 0.66 78 1009.8
20260505174041 42 205 0.9 0.9 0.00 0.00 0.64 78 1009.6
20260505173539 42 115 0.0 0.0 0.00 0.00 0.62 78 1009.6
20260505172041 41 157 0.9 1.7 0.00 0.00 0.58 80 1009.6
20260505170533 41 212 1.7 1.7 0.00 0.00 0.52 81 1009.4
20260505170131 40 250 1.7 2.6 0.00 0.00 0.51 81 1009.3
20260505170033 40 250 1.7 2.6 0.00 0.00 0.51 81 1009.3
20260505165030 40 296 0.0 0.9 0.00 0.00 0.48 82 1009.3
20260505164026 39 205 0.0 0.9 0.00 0.00 0.46 82 1009.3
20260505163024 38 326 0.9 0.9 0.00 0.00 0.44 83 1009.2
20260505162522 38 250 0.0 0.9 0.00 0.00 0.42 83 1009.2
20260505162021 38 340 0.0 1.7 0.00 0.00 0.41 83 1009.2
20260505161520 37 341 0.9 0.9 0.00 0.00 0.39 83 1009.2
20260505161018 37 295 0.9 1.7 0.00 0.00 0.38 83 1009.2
20260505160517 37 340 0.0 0.9 0.00 0.00 0.37 83 1009.1
20260505153011 36 344 0.0 1.7 0.00 0.00 0.31 85 1008.7
20260505140448 34 205 0.0 0.0 0.00 0.00 0.28 85 1008.3
20260505124928 34 23 0.0 0.0 0.00 0.00 0.28 84 1008.0
20260505124425 34 23 0.0 0.0 0.00 0.00 0.28 84 1008.0
20260505123424 34 23 0.0 0.0 0.00 0.00 0.28 84 1008.0
20260505122922 34 23 0.0 0.0 0.00 0.00 0.28 84 1008.1
20260505122421 34 23 0.0 0.0 0.00 0.00 0.28 84 1008.0
20260505121918 33 24 0.0 0.0 0.00 0.00 0.28 84 1008.0
20260505121418 34 47 0.0 0.0 0.00 0.00 0.28 84 1008.0
20260505120916 34 47 0.0 0.0 0.00 0.00 0.28 84 1007.9
20260505120415 34 47 0.0 0.0 0.00 0.00 0.28 84 1008.1
20260505115914 34 68 0.0 0.0 0.00 0.00 0.28 84 1008.0
20260505115412 34 63 0.0 0.0 0.00 0.00 0.28 84 1007.8
20260505113909 34 65 0.0 0.0 0.00 0.00 0.28 84 1007.9
20260505113407 34 68 0.0 0.0 0.00 0.00 0.28 84 1007.9
20260505112907 34 67 0.0 0.0 0.00 0.00 0.28 84 1007.9
20260505110400 33 65 0.0 0.0 0.00 0.00 0.28 84 1008.0
20260505101348 33 66 0.0 0.0 0.00 0.00 0.28 84 1008.1
20260505100848 33 68 0.0 0.0 0.00 0.00 0.28 84 1008.1
20260505100343 33 67 0.0 0.0 0.00 0.00 0.28 84 1008.1
20260505095341 33 63 0.0 0.0 0.00 0.00 0.28 84 1008.1
20260505094838 33 67 0.0 0.0 0.00 0.00 0.28 84 1008.1
20260505094339 33 66 0.0 0.0 0.00 0.00 0.28 84 1008.3
20260505093335 34 68 0.0 0.0 0.00 0.00 0.28 83 1008.5
20260505092835 34 68 0.0 0.0 0.00 0.00 0.28 83 1008.4
20260505092333 34 63 0.0 0.0 0.00 0.00 0.28 83 1008.4